| time (UTC) | temp F | wind direction | speed knots | gust knots | rain 1hr in | rain 24hr in | rain mn in | humidity % | barometer mb |
| 20260506203709 | 72 | 97 | 3.5 | 5.2 | 0.00 | 0.00 | 0.00 | 57 | 1020.6 |
| 20260506203209 | 72 | 99 | 3.5 | 5.2 | 0.00 | 0.00 | 0.00 | 57 | 1020.6 |
| 20260506202709 | 72 | 107 | 2.6 | 5.2 | 0.00 | 0.00 | 0.00 | 56 | 1020.6 |
| 20260506202208 | 71 | 107 | 0.9 | 5.2 | 0.00 | 0.00 | 0.00 | 59 | 1020.7 |
| 20260506201708 | 71 | 97 | 2.6 | 7.8 | 0.00 | 0.00 | 0.00 | 59 | 1020.8 |
| 20260506201209 | 71 | 103 | 2.6 | 7.8 | 0.00 | 0.00 | 0.00 | 58 | 1020.8 |
| 20260506200704 | 71 | 96 | 2.6 | 6.1 | 0.00 | 0.00 | 0.00 | 58 | 1020.8 |
| 20260506200204 | 71 | 127 | 2.6 | 7.8 | 0.00 | 0.00 | 0.00 | 61 | 1020.9 |
| 20260506195928 | 71 | 83 | 4.3 | 7.8 | 0.00 | 0.00 | 0.00 | 60 | 1020.9 |
| 20260506195202 | 71 | 103 | 3.5 | 6.1 | 0.00 | 0.00 | 0.00 | 60 | 1020.9 |
| 20260506194703 | 71 | 100 | 3.5 | 6.1 | 0.00 | 0.00 | 0.00 | 60 | 1020.9 |
| 20260506194425 | 71 | 117 | 2.6 | 6.1 | 0.00 | 0.00 | 0.00 | 60 | 1020.8 |
| 20260506193704 | 71 | 102 | 3.5 | 7.8 | 0.00 | 0.00 | 0.00 | 59 | 1020.9 |
| 20260506193203 | 71 | 96 | 2.6 | 7.8 | 0.00 | 0.00 | 0.00 | 61 | 1020.9 |
| 20260506192702 | 71 | 90 | 2.6 | 5.2 | 0.00 | 0.00 | 0.00 | 62 | 1020.9 |
| 20260506192202 | 71 | 99 | 1.7 | 6.1 | 0.00 | 0.00 | 0.00 | 60 | 1021.0 |
| 20260506191702 | 71 | 106 | 2.6 | 6.1 | 0.00 | 0.00 | 0.00 | 61 | 1020.8 |
| 20260506191202 | 71 | 106 | 2.6 | 5.2 | 0.00 | 0.00 | 0.00 | 60 | 1020.9 |
| 20260506190701 | 71 | 55 | 3.5 | 6.1 | 0.00 | 0.00 | 0.00 | 60 | 1021.0 |
| 20260506190202 | 71 | 106 | 3.5 | 7.8 | 0.00 | 0.00 | 0.00 | 59 | 1021.0 |
| 20260506185702 | 71 | 109 | 3.5 | 7.8 | 0.00 | 0.00 | 0.00 | 60 | 1021.0 |
| 20260506185202 | 71 | 104 | 2.6 | 7.8 | 0.00 | 0.00 | 0.00 | 60 | 1021.1 |
| 20260506184702 | 71 | 97 | 4.3 | 7.8 | 0.00 | 0.00 | 0.00 | 59 | 1021.1 |
| 20260506184202 | 71 | 93 | 3.5 | 7.8 | 0.00 | 0.00 | 0.00 | 60 | 1021.2 |
| 20260506183702 | 71 | 128 | 2.6 | 7.8 | 0.00 | 0.00 | 0.00 | 60 | 1021.2 |
| 20260506183202 | 71 | 97 | 1.7 | 7.8 | 0.00 | 0.00 | 0.00 | 61 | 1021.2 |
| 20260506182701 | 70 | 133 | 0.9 | 6.1 | 0.00 | 0.00 | 0.00 | 63 | 1021.3 |
| 20260506182431 | 70 | 83 | 3.5 | 8.7 | 0.00 | 0.00 | 0.00 | 63 | 1021.3 |
| 20260506181923 | 70 | 82 | 6.1 | 8.7 | 0.00 | 0.00 | 0.00 | 61 | 1021.3 |
| 20260506181431 | 70 | 83 | 3.5 | 7.8 | 0.00 | 0.00 | 0.00 | 64 | 1021.4 |
| 20260506180702 | 69 | 100 | 3.5 | 6.1 | 0.00 | 0.00 | 0.00 | 60 | 1021.3 |
| 20260506180202 | 70 | 109 | 2.6 | 5.2 | 0.00 | 0.00 | 0.00 | 61 | 1021.3 |
| 20260506175702 | 0 | 0.0 | 3.5 | 0.00 | 0.00 | 0.00 | 1021.3 | ||
| 20260506175204 | 69 | 109 | 1.7 | 4.3 | 0.00 | 0.00 | 0.00 | 62 | 1021.3 |
| 20260506174702 | 69 | 121 | 1.7 | 7.8 | 0.00 | 0.00 | 0.00 | 62 | 1021.3 |
| 20260506174202 | 69 | 99 | 3.5 | 7.8 | 0.00 | 0.00 | 0.00 | 62 | 1021.2 |
| 20260506173921 | 68 | 114 | 2.6 | 7.8 | 0.00 | 0.00 | 0.00 | 62 | 1021.2 |
| 20260506173202 | 69 | 90 | 4.3 | 7.8 | 0.00 | 0.00 | 0.00 | 63 | 1021.2 |
| 20260506172701 | 69 | 100 | 4.3 | 8.7 | 0.00 | 0.00 | 0.00 | 63 | 1021.2 |
| 20260506172202 | 68 | 128 | 2.6 | 8.7 | 0.00 | 0.00 | 0.00 | 63 | 1021.1 |
| 20260506171701 | 68 | 94 | 3.5 | 8.7 | 0.00 | 0.00 | 0.00 | 63 | 1021.1 |
| 20260506171200 | 69 | 94 | 3.5 | 8.7 | 0.00 | 0.00 | 0.00 | 63 | 1021.1 |
| 20260506170926 | 68 | 113 | 1.7 | 8.7 | 0.00 | 0.00 | 0.00 | 64 | 1021.0 |
| 20260506170202 | 68 | 125 | 1.7 | 4.3 | 0.00 | 0.00 | 0.00 | 66 | 1021.1 |
| 20260506165702 | 68 | 90 | 2.6 | 5.2 | 0.00 | 0.00 | 0.00 | 66 | 1021.0 |
| 20260506165202 | 67 | 103 | 2.6 | 6.1 | 0.00 | 0.00 | 0.00 | 67 | 1021.0 |
| 20260506164701 | 67 | 102 | 3.5 | 6.1 | 0.00 | 0.00 | 0.00 | 67 | 1021.0 |
| 20260506164202 | 67 | 113 | 0.9 | 3.5 | 0.00 | 0.00 | 0.00 | 67 | 1021.0 |
| 20260506163702 | 66 | 110 | 1.7 | 3.5 | 0.00 | 0.00 | 0.00 | 69 | 1020.9 |
| 20260506163422 | 66 | 114 | 1.7 | 3.5 | 0.00 | 0.00 | 0.00 | 69 | 1020.9 |
| 20260506162700 | 65 | 109 | 0.9 | 3.5 | 0.00 | 0.00 | 0.00 | 70 | 1020.8 |
| 20260506162200 | 65 | 100 | 1.7 | 3.5 | 0.00 | 0.00 | 0.00 | 70 | 1020.8 |
| 20260506161700 | 65 | 117 | 1.7 | 2.6 | 0.00 | 0.00 | 0.00 | 71 | 1020.9 |
| 20260506161159 | 64 | 118 | 1.7 | 3.5 | 0.00 | 0.00 | 0.00 | 71 | 1020.9 |
| 20260506160921 | 64 | 127 | 1.7 | 3.5 | 0.00 | 0.00 | 0.00 | 71 | 1020.9 |
| 20260506160159 | 64 | 103 | 0.9 | 4.3 | 0.00 | 0.00 | 0.00 | 71 | 1020.8 |
| 20260506155659 | 64 | 102 | 2.6 | 5.2 | 0.00 | 0.00 | 0.00 | 72 | 1020.8 |
| 20260506155159 | 64 | 102 | 2.6 | 5.2 | 0.00 | 0.00 | 0.00 | 72 | 1020.9 |
| 20260506154658 | 64 | 100 | 2.6 | 5.2 | 0.00 | 0.00 | 0.00 | 73 | 1020.8 |
| 20260506154159 | 64 | 107 | 1.7 | 2.6 | 0.00 | 0.00 | 0.00 | 74 | 1020.7 |
| 20260506153700 | 63 | 109 | 0.9 | 2.6 | 0.00 | 0.00 | 0.00 | 76 | 1020.7 |
| 20260506153201 | 62 | 110 | 0.9 | 2.6 | 0.00 | 0.00 | 0.00 | 78 | 1020.6 |
| 20260506152700 | 62 | 100 | 0.0 | 1.7 | 0.00 | 0.00 | 0.00 | 79 | 1020.7 |
| 20260506152201 | 61 | 56 | 0.0 | 1.7 | 0.00 | 0.00 | 0.00 | 80 | 1020.6 |
| 20260506151659 | 60 | 306 | 0.0 | 0.0 | 0.00 | 0.00 | 0.00 | 81 | 1020.5 |
| 20260506151200 | 60 | 300 | 0.0 | 0.0 | 0.00 | 0.00 | 0.00 | 82 | 1020.6 |
| 20260506150659 | 59 | 298 | 0.0 | 0.0 | 0.00 | 0.00 | 0.00 | 83 | 1020.6 |
| 20260506150156 | 58 | 298 | 0.0 | 0.0 | 0.00 | 0.00 | 0.00 | 84 | 1020.6 |
| 20260506145700 | 58 | 298 | 0.0 | 0.0 | 0.00 | 0.00 | 0.00 | 84 | 1020.5 |
| 20260506145200 | 57 | 298 | 0.0 | 0.0 | 0.00 | 0.00 | 0.00 | 85 | 1020.5 |
| 20260506144658 | 56 | 298 | 0.0 | 0.0 | 0.00 | 0.00 | 0.00 | 85 | 1020.4 |
| 20260506144158 | 56 | 298 | 0.0 | 0.0 | 0.00 | 0.00 | 0.00 | 86 | 1020.3 |
| 20260506143657 | 56 | 298 | 0.0 | 0.0 | 0.00 | 0.00 | 0.00 | 86 | 1020.3 |
| 20260506143158 | 55 | 298 | 0.0 | 0.0 | 0.00 | 0.00 | 0.00 | 86 | 1020.3 |
| 20260506142657 | 55 | 298 | 0.0 | 0.0 | 0.00 | 0.00 | 0.00 | 86 | 1020.2 |
| 20260506142158 | 55 | 298 | 0.0 | 0.0 | 0.00 | 0.00 | 0.00 | 86 | 1020.2 |
| 20260506141657 | 54 | 298 | 0.0 | 0.9 | 0.00 | 0.00 | 0.00 | 86 | 1020.1 |
| 20260506141158 | 54 | 298 | 0.0 | 1.7 | 0.00 | 0.00 | 0.00 | 86 | 1020.0 |
| 20260506140656 | 54 | 298 | 0.0 | 1.7 | 0.00 | 0.00 | 0.00 | 85 | 1020.0 |
| 20260506140157 | 54 | 298 | 0.9 | 1.7 | 0.00 | 0.00 | 0.00 | 85 | 1019.9 |
| 20260506135657 | 54 | 298 | 0.0 | 1.7 | 0.00 | 0.00 | 0.00 | 85 | 1019.9 |
| 20260506135157 | 54 | 298 | 0.9 | 0.9 | 0.00 | 0.00 | 0.00 | 86 | 1019.8 |
| 20260506134656 | 53 | 298 | 0.0 | 0.0 | 0.00 | 0.00 | 0.00 | 86 | 1019.8 |
| 20260506134416 | 53 | 298 | 0.0 | 0.9 | 0.00 | 0.00 | 0.00 | 86 | 1019.8 |
| 20260506133656 | 53 | 298 | 0.0 | 0.9 | 0.00 | 0.00 | 0.00 | 86 | 1019.7 |
| 20260506133638 | 53 | 298 | 0.0 | 0.9 | 0.00 | 0.00 | 0.00 | 86 | 1019.6 |
| 20260506132656 | 53 | 298 | 0.0 | 1.7 | 0.00 | 0.00 | 0.00 | 87 | 1019.5 |
| 20260506132157 | 53 | 298 | 0.0 | 1.7 | 0.00 | 0.00 | 0.00 | 87 | 1019.6 |
| 20260506131655 | 53 | 298 | 0.9 | 1.7 | 0.00 | 0.00 | 0.00 | 87 | 1019.6 |
| 20260506131633 | 53 | 298 | 0.0 | 0.9 | 0.00 | 0.00 | 0.00 | 87 | 1019.5 |
| 20260506130917 | 53 | 298 | 0.0 | 1.7 | 0.00 | 0.00 | 0.00 | 87 | 1019.5 |
| 20260506130156 | 53 | 298 | 0.0 | 1.7 | 0.00 | 0.00 | 0.00 | 87 | 1019.5 |
| 20260506125654 | 53 | 298 | 0.0 | 0.0 | 0.00 | 0.00 | 0.00 | 87 | 1019.4 |
| 20260506125156 | 53 | 298 | 0.0 | 0.0 | 0.00 | 0.00 | 0.00 | 87 | 1019.3 |
| 20260506124655 | 53 | 298 | 0.0 | 0.0 | 0.00 | 0.00 | 0.00 | 87 | 1019.3 |
| 20260506124157 | 53 | 298 | 0.0 | 0.0 | 0.00 | 0.00 | 0.00 | 87 | 1019.3 |
| 20260506123656 | 53 | 298 | 0.0 | 0.9 | 0.00 | 0.00 | 0.00 | 87 | 1019.3 |
| 20260506123156 | 54 | 298 | 0.0 | 0.9 | 0.00 | 0.00 | 0.00 | 87 | 1019.3 |
| 20260506123142 | 54 | 298 | 0.0 | 0.9 | 0.00 | 0.00 | 0.00 | 86 | 1019.3 |
| 20260506122156 | 54 | 298 | 0.0 | 0.9 | 0.00 | 0.00 | 0.00 | 86 | 1019.3 |
| 20260506121654 | 54 | 298 | 0.0 | 0.9 | 0.00 | 0.00 | 0.00 | 86 | 1019.2 |
| 20260506121419 | 54 | 298 | 0.0 | 1.7 | 0.00 | 0.00 | 0.00 | 85 | 1019.3 |
| 20260506120654 | 54 | 298 | 0.0 | 1.7 | 0.00 | 0.00 | 0.00 | 84 | 1019.2 |
| 20260506120154 | 54 | 296 | 0.0 | 2.6 | 0.00 | 0.00 | 0.00 | 84 | 1019.2 |
| 20260506115655 | 54 | 296 | 0.0 | 2.6 | 0.00 | 0.00 | 0.00 | 84 | 1019.4 |
| 20260506115155 | 54 | 296 | 1.7 | 2.6 | 0.00 | 0.00 | 0.00 | 84 | 1019.4 |
| 20260506114654 | 54 | 296 | 1.7 | 1.7 | 0.00 | 0.00 | 0.00 | 84 | 1019.4 |
| 20260506114155 | 54 | 296 | 0.0 | 1.7 | 0.00 | 0.00 | 0.00 | 84 | 1019.3 |
| 20260506113654 | 54 | 296 | 0.0 | 3.5 | 0.00 | 0.00 | 0.00 | 84 | 1019.2 |
| 20260506113153 | 54 | 295 | 0.9 | 3.5 | 0.00 | 0.00 | 0.00 | 84 | 1019.3 |
| 20260506112653 | 54 | 295 | 2.6 | 4.3 | 0.00 | 0.00 | 0.00 | 84 | 1019.2 |
| 20260506112153 | 54 | 295 | 2.6 | 4.3 | 0.00 | 0.00 | 0.00 | 84 | 1019.3 |
| 20260506111653 | 54 | 302 | 3.5 | 4.3 | 0.00 | 0.00 | 0.00 | 83 | 1019.4 |
| 20260506111153 | 54 | 303 | 1.7 | 2.6 | 0.00 | 0.00 | 0.00 | 84 | 1019.3 |
| 20260506110652 | 54 | 305 | 1.7 | 2.6 | 0.00 | 0.00 | 0.00 | 83 | 1019.2 |
| 20260506110152 | 54 | 305 | 1.7 | 3.5 | 0.00 | 0.00 | 0.00 | 83 | 1019.2 |
| 20260506105652 | 54 | 305 | 1.7 | 4.3 | 0.00 | 0.00 | 0.00 | 83 | 1019.1 |
| 20260506105639 | 54 | 305 | 2.6 | 4.3 | 0.00 | 0.00 | 0.00 | 82 | 1019.2 |
| 20260506104652 | 54 | 305 | 3.5 | 4.3 | 0.00 | 0.00 | 0.00 | 82 | 1019.2 |
| 20260506104416 | 54 | 303 | 3.5 | 4.3 | 0.00 | 0.00 | 0.00 | 82 | 1019.2 |
| 20260506103652 | 54 | 32 | 1.7 | 1.7 | 0.00 | 0.00 | 0.00 | 83 | 1019.2 |
| 20260506103421 | 54 | 32 | 0.9 | 1.7 | 0.00 | 0.00 | 0.00 | 83 | 1019.1 |
| 20260506102654 | 54 | 32 | 0.0 | 2.6 | 0.00 | 0.00 | 0.00 | 82 | 1019.0 |
| 20260506102153 | 55 | 32 | 0.9 | 2.6 | 0.00 | 0.00 | 0.00 | 82 | 1019.0 |
| 20260506101654 | 55 | 32 | 1.7 | 2.6 | 0.00 | 0.00 | 0.00 | 82 | 1019.0 |
| 20260506101411 | 55 | 32 | 1.7 | 2.6 | 0.00 | 0.00 | 0.00 | 82 | 1018.9 |
| 20260506100920 | 55 | 32 | 1.7 | 2.6 | 0.00 | 0.00 | 0.00 | 82 | 1019.0 |
| 20260506100152 | 55 | 32 | 1.7 | 1.7 | 0.00 | 0.00 | 0.00 | 81 | 1018.9 |
| 20260506095653 | 55 | 32 | 0.9 | 1.7 | 0.00 | 0.00 | 0.00 | 81 | 1019.0 |
| 20260506095152 | 55 | 32 | 0.0 | 1.7 | 0.00 | 0.00 | 0.00 | 81 | 1019.0 |
| 20260506094653 | 55 | 34 | 0.9 | 2.6 | 0.00 | 0.00 | 0.00 | 81 | 1018.9 |
| 20260506094151 | 55 | 32 | 0.0 | 2.6 | 0.00 | 0.00 | 0.00 | 80 | 1018.9 |
| 20260506093652 | 55 | 32 | 1.7 | 2.6 | 0.00 | 0.00 | 0.00 | 80 | 1019.1 |
| 20260506093152 | 56 | 34 | 1.7 | 1.7 | 0.00 | 0.00 | 0.00 | 80 | 1019.1 |
| 20260506092652 | 56 | 34 | 0.0 | 1.7 | 0.00 | 0.00 | 0.00 | 79 | 1019.0 |
| 20260506092152 | 56 | 34 | 0.9 | 1.7 | 0.00 | 0.00 | 0.00 | 79 | 1019.1 |
| 20260506091653 | 56 | 34 | 0.0 | 0.9 | 0.00 | 0.00 | 0.00 | 79 | 1019.1 |
| 20260506091634 | 56 | 34 | 0.0 | 1.7 | 0.00 | 0.00 | 0.00 | 79 | 1019.1 |
| 20260506090908 | 56 | 34 | 0.9 | 2.6 | 0.00 | 0.00 | 0.00 | 78 | 1019.1 |
| 20260506090149 | 56 | 34 | 1.7 | 3.5 | 0.00 | 0.00 | 0.00 | 78 | 1019.2 |
| 20260506085651 | 56 | 34 | 0.9 | 4.3 | 0.00 | 0.00 | 0.00 | 78 | 1019.2 |
| 20260506085150 | 56 | 34 | 3.5 | 4.3 | 0.00 | 0.00 | 0.00 | 77 | 1019.2 |
| 20260506084650 | 56 | 39 | 0.0 | 2.6 | 0.00 | 0.00 | 0.00 | 77 | 1019.2 |
| 20260506084149 | 56 | 38 | 1.7 | 3.5 | 0.00 | 0.00 | 0.00 | 77 | 1019.2 |
| 20260506083650 | 56 | 39 | 2.6 | 3.5 | 0.00 | 0.00 | 0.00 | 77 | 1019.2 |
| 20260506083149 | 56 | 39 | 2.6 | 3.5 | 0.00 | 0.00 | 0.00 | 78 | 1019.2 |
| 20260506082650 | 56 | 37 | 3.5 | 3.5 | 0.00 | 0.00 | 0.00 | 78 | 1019.2 |
| 20260506082148 | 56 | 295 | 0.0 | 3.5 | 0.00 | 0.00 | 0.00 | 78 | 1019.2 |
| 20260506081650 | 56 | 295 | 1.7 | 3.5 | 0.00 | 0.00 | 0.00 | 79 | 1019.2 |
| 20260506081148 | 56 | 295 | 1.7 | 3.5 | 0.00 | 0.00 | 0.00 | 79 | 1019.2 |
| 20260506080916 | 56 | 295 | 1.7 | 6.1 | 0.00 | 0.00 | 0.00 | 80 | 1019.2 |
| 20260506080148 | 56 | 295 | 2.6 | 6.1 | 0.00 | 0.00 | 0.00 | 80 | 1019.2 |
| 20260506073148 | 55 | 272 | 6.1 | 7.8 | 0.00 | 0.00 | 0.00 | 79 | 1019.1 |
| 20260506072649 | 55 | 251 | 5.2 | 7.8 | 0.00 | 0.00 | 0.00 | 79 | 1019.0 |
| 20260506072147 | 56 | 274 | 5.2 | 6.1 | 0.00 | 0.00 | 0.00 | 77 | 1019.0 |
| 20260506071649 | 56 | 276 | 3.5 | 4.3 | 0.00 | 0.00 | 0.00 | 76 | 1019.0 |
| 20260506071147 | 56 | 278 | 3.5 | 4.3 | 0.00 | 0.00 | 0.00 | 75 | 1019.0 |
| 20260506070906 | 57 | 223 | 3.5 | 4.3 | 0.00 | 0.00 | 0.00 | 74 | 1018.9 |
| 20260506070408 | 58 | 221 | 1.7 | 3.5 | 0.00 | 0.00 | 0.00 | 73 | 1018.8 |
| 20260506062147 | 60 | 10 | 0.0 | 3.5 | 0.00 | 0.00 | 0.00 | 70 | 1018.4 |
| 20260506061648 | 60 | 10 | 1.7 | 3.5 | 0.00 | 0.00 | 0.00 | 70 | 1018.2 |
| 20260506061146 | 60 | 0 | 1.7 | 2.6 | 0.00 | 0.00 | 0.00 | 70 | 1018.2 |
| 20260506060911 | 60 | 0 | 0.0 | 2.6 | 0.00 | 0.00 | 0.00 | 70 | 1018.3 |
| 20260506060147 | 60 | 0 | 0.9 | 3.5 | 0.00 | 0.00 | 0.00 | 70 | 1018.3 |
| 20260506051144 | 61 | 93 | 3.5 | 5.2 | 0.00 | 0.00 | 0.00 | 68 | 1017.9 |
| 20260506050646 | 61 | 307 | 1.7 | 3.5 | 0.00 | 0.00 | 0.00 | 68 | 1017.9 |
| 20260506050144 | 61 | 302 | 1.7 | 4.3 | 0.00 | 0.00 | 0.00 | 68 | 1017.8 |
| 20260506044644 | 61 | 305 | 0.9 | 4.3 | 0.00 | 0.00 | 0.00 | 68 | 1017.6 |
| 20260506044405 | 61 | 303 | 2.6 | 5.2 | 0.00 | 0.00 | 0.00 | 69 | 1017.5 |
| 20260506043643 | 61 | 300 | 0.0 | 7.8 | 0.00 | 0.00 | 0.00 | 68 | 1017.5 |
| 20260506043144 | 61 | 292 | 5.2 | 9.6 | 0.00 | 0.00 | 0.00 | 70 | 1017.5 |
| 20260506042909 | 61 | 290 | 6.1 | 9.6 | 0.00 | 0.00 | 0.00 | 70 | 1017.4 |
| 20260506042143 | 60 | 274 | 7.0 | 10.4 | 0.00 | 0.00 | 0.00 | 70 | 1017.3 |
| 20260506041643 | 60 | 296 | 7.8 | 10.4 | 0.00 | 0.00 | 0.00 | 71 | 1017.4 |
| 20260506041405 | 59 | 271 | 7.0 | 11.3 | 0.00 | 0.00 | 0.00 | 71 | 1017.2 |
| 20260506040642 | 60 | 286 | 7.0 | 12.2 | 0.00 | 0.00 | 0.00 | 71 | 1017.2 |
| 20260506040141 | 60 | 261 | 8.7 | 13.9 | 0.00 | 0.00 | 0.00 | 71 | 1017.2 |
| 20260506035636 | 60 | 259 | 8.7 | 13.9 | 0.00 | 0.00 | 0.00 | 70 | 1017.2 |
| 20260506035134 | 60 | 289 | 7.8 | 12.2 | 0.00 | 0.00 | 0.00 | 70 | 1017.1 |
| 20260506034635 | 60 | 252 | 8.7 | 12.2 | 0.00 | 0.00 | 0.00 | 69 | 1017.0 |
| 20260506034133 | 60 | 276 | 7.0 | 9.6 | 0.00 | 0.00 | 0.00 | 69 | 1016.9 |
| 20260506033633 | 61 | 283 | 7.0 | 12.2 | 0.00 | 0.00 | 0.00 | 68 | 1016.8 |
| 20260506033134 | 61 | 275 | 8.7 | 13.0 | 0.00 | 0.00 | 0.00 | 68 | 1016.7 |
| 20260506032632 | 61 | 278 | 7.8 | 14.8 | 0.00 | 0.00 | 0.00 | 68 | 1016.6 |
| 20260506032132 | 61 | 276 | 7.8 | 14.8 | 0.00 | 0.00 | 0.00 | 67 | 1016.5 |
| 20260506031633 | 61 | 269 | 11.3 | 14.8 | 0.00 | 0.00 | 0.00 | 67 | 1016.3 |
| 20260506031131 | 62 | 269 | 9.6 | 14.8 | 0.00 | 0.00 | 0.00 | 66 | 1016.4 |
| 20260506030854 | 61 | 299 | 6.1 | 12.2 | 0.00 | 0.00 | 0.00 | 66 | 1016.3 |
| 20260506030131 | 61 | 279 | 8.7 | 11.3 | 0.00 | 0.00 | 0.00 | 67 | 1016.3 |
| 20260506025854 | 61 | 275 | 7.8 | 14.8 | 0.00 | 0.00 | 0.00 | 67 | 1016.3 |
| 20260506025131 | 61 | 293 | 7.8 | 16.5 | 0.00 | 0.00 | 0.00 | 67 | 1016.3 |
| 20260506024631 | 62 | 279 | 12.2 | 16.5 | 0.00 | 0.00 | 0.00 | 66 | 1016.3 |
| 20260506024131 | 62 | 266 | 9.6 | 18.2 | 0.00 | 0.00 | 0.00 | 66 | 1016.3 |
| 20260506023632 | 62 | 252 | 12.2 | 18.2 | 0.00 | 0.00 | 0.00 | 65 | 1016.1 |
| 20260506023131 | 62 | 271 | 11.3 | 16.5 | 0.00 | 0.00 | 0.00 | 65 | 1016.0 |
| 20260506022631 | 63 | 258 | 11.3 | 15.6 | 0.00 | 0.00 | 0.00 | 64 | 1016.1 |
| 20260506022351 | 63 | 269 | 12.2 | 18.2 | 0.00 | 0.00 | 0.00 | 64 | 1016.0 |
| 20260506021631 | 64 | 261 | 13.9 | 18.2 | 0.00 | 0.00 | 0.00 | 63 | 1016.0 |
| 20260506021131 | 64 | 257 | 11.3 | 16.5 | 0.00 | 0.00 | 0.00 | 63 | 1016.0 |
| 20260506020631 | 65 | 247 | 12.2 | 15.6 | 0.00 | 0.00 | 0.00 | 62 | 1016.1 |
| 20260506020131 | 65 | 261 | 10.4 | 17.4 | 0.00 | 0.00 | 0.00 | 62 | 1016.1 |
| 20260506015631 | 65 | 245 | 13.0 | 17.4 | 0.00 | 0.00 | 0.00 | 61 | 1016.0 |
| 20260506015132 | 65 | 257 | 11.3 | 15.6 | 0.00 | 0.00 | 0.00 | 61 | 1015.9 |
| 20260506014633 | 66 | 248 | 9.6 | 15.6 | 0.00 | 0.00 | 0.00 | 60 | 1015.8 |
| 20260506014108 | 66 | 254 | 8.7 | 14.8 | 0.00 | 0.00 | 0.00 | 61 | 1015.9 |
| 20260506013608 | 65 | 265 | 9.6 | 19.1 | 0.00 | 0.00 | 0.00 | 60 | 1015.8 |
| 20260506013321 | 65 | 272 | 10.4 | 19.1 | 0.00 | 0.00 | 0.00 | 60 | 1015.7 |
| 20260506012822 | 65 | 269 | 13.9 | 19.1 | 0.00 | 0.00 | 0.00 | 60 | 1015.7 |
| 20260506012104 | 65 | 264 | 8.7 | 17.4 | 0.00 | 0.00 | 0.00 | 59 | 1015.7 |
| 20260506011603 | 66 | 286 | 10.4 | 17.4 | 0.00 | 0.00 | 0.00 | 58 | 1015.7 |
| 20260506011102 | 67 | 251 | 11.3 | 17.4 | 0.00 | 0.00 | 0.00 | 58 | 1015.7 |
| 20260506010604 | 67 | 275 | 7.8 | 13.9 | 0.00 | 0.00 | 0.00 | 57 | 1015.7 |
| 20260506005603 | 68 | 226 | 9.6 | 14.8 | 0.00 | 0.00 | 0.00 | 56 | 1015.7 |
| 20260506005102 | 68 | 245 | 7.0 | 16.5 | 0.00 | 0.00 | 0.00 | 56 | 1015.8 |
| 20260506004829 | 68 | 278 | 9.6 | 16.5 | 0.00 | 0.00 | 0.00 | 55 | 1015.7 |
| 20260506004102 | 69 | 286 | 9.6 | 14.8 | 0.00 | 0.00 | 0.00 | 55 | 1015.7 |
| 20260506003833 | 69 | 255 | 7.8 | 13.0 | 0.00 | 0.00 | 0.00 | 55 | 1015.7 |
| 20260506003102 | 68 | 274 | 8.7 | 13.0 | 0.00 | 0.00 | 0.00 | 56 | 1015.7 |
| 20260506002602 | 68 | 271 | 7.8 | 15.6 | 0.00 | 0.00 | 0.00 | 56 | 1015.7 |
| 20260506002101 | 67 | 234 | 9.6 | 15.6 | 0.00 | 0.00 | 0.00 | 57 | 1015.6 |
| 20260506001550 | 67 | 244 | 10.4 | 13.9 | 0.00 | 0.00 | 0.00 | 57 | 1015.7 |
| 20260506001051 | 66 | 217 | 7.8 | 13.9 | 0.00 | 0.00 | 0.00 | 58 | 1015.7 |
| 20260506000811 | 66 | 245 | 8.7 | 13.9 | 0.00 | 0.00 | 0.00 | 57 | 1015.5 |
| 20260506000041 | 66 | 241 | 7.8 | 16.5 | 0.00 | 0.00 | 0.00 | 57 | 1015.4 |
| 20260505235540 | 67 | 259 | 11.3 | 18.2 | 0.00 | 0.00 | 0.00 | 56 | 1015.4 |
| 20260505235038 | 67 | 254 | 9.6 | 18.2 | 0.00 | 0.00 | 0.00 | 55 | 1015.3 |
| 20260505234539 | 68 | 251 | 7.8 | 17.4 | 0.00 | 0.00 | 0.00 | 54 | 1015.3 |
| 20260505234038 | 69 | 252 | 10.4 | 17.4 | 0.00 | 0.00 | 0.00 | 54 | 1015.2 |
| 20260505233537 | 69 | 244 | 6.1 | 19.1 | 0.00 | 0.00 | 0.00 | 56 | 1015.4 |
| 20260505233303 | 69 | 234 | 11.3 | 19.1 | 0.00 | 0.00 | 0.00 | 53 | 1015.3 |
| 20260505232537 | 69 | 261 | 11.3 | 20.9 | 0.00 | 0.00 | 0.00 | 54 | 1015.4 |
| 20260505232036 | 69 | 227 | 10.4 | 24.3 | 0.00 | 0.00 | 0.00 | 53 | 1015.4 |
| 20260505231536 | 69 | 235 | 13.0 | 24.3 | 0.00 | 0.00 | 0.00 | 54 | 1015.4 |
| 20260505231256 | 70 | 228 | 12.2 | 24.3 | 0.00 | 0.00 | 0.00 | 54 | 1015.3 |
| 20260505230536 | 69 | 231 | 9.6 | 24.3 | 0.00 | 0.00 | 0.00 | 56 | 1015.5 |
| 20260505230036 | 69 | 219 | 12.2 | 18.2 | 0.00 | 0.00 | 0.00 | 56 | 1015.4 |
| 20260505225757 | 67 | 224 | 10.4 | 16.5 | 0.00 | 0.00 | 0.00 | 57 | 1015.7 |
| 20260505225257 | 66 | 238 | 8.7 | 20.0 | 0.00 | 0.00 | 0.00 | 59 | 1015.7 |
| 20260505224536 | 65 | 224 | 9.6 | 20.0 | 0.00 | 0.00 | 0.00 | 59 | 1015.8 |
| 20260505224256 | 66 | 247 | 14.8 | 18.2 | 0.00 | 0.00 | 0.00 | 58 | 1015.9 |
| 20260505223535 | 66 | 223 | 13.0 | 18.2 | 0.00 | 0.00 | 0.00 | 57 | 1015.9 |
| 20260505223257 | 67 | 233 | 10.4 | 25.2 | 0.00 | 0.00 | 0.00 | 57 | 1015.9 |
| 20260505222801 | 68 | 252 | 9.6 | 25.2 | 0.00 | 0.00 | 0.00 | 55 | 1016.0 |
| 20260505222301 | 69 | 212 | 10.4 | 18.2 | 0.00 | 0.00 | 0.00 | 54 | 1016.0 |
| 20260505221535 | 69 | 196 | 12.2 | 16.5 | 0.00 | 0.00 | 0.00 | 55 | 1016.1 |
| 20260505221032 | 68 | 200 | 7.8 | 16.5 | 0.00 | 0.00 | 0.00 | 57 | 1016.2 |
| 20260505220532 | 67 | 274 | 12.2 | 17.4 | 0.00 | 0.00 | 0.00 | 58 | 1016.2 |
| 20260505220513 | 67 | 261 | 13.0 | 17.4 | 0.00 | 0.00 | 0.00 | 57 | 1016.3 |
| 20260505215525 | 67 | 220 | 11.3 | 19.1 | 0.00 | 0.00 | 0.00 | 57 | 1016.3 |
| 20260505215017 | 67 | 255 | 11.3 | 20.9 | 0.00 | 0.00 | 0.00 | 57 | 1016.3 |
| 20260505214518 | 68 | 241 | 12.2 | 20.9 | 0.00 | 0.00 | 0.00 | 54 | 1016.3 |
| 20260505214015 | 69 | 238 | 9.6 | 20.0 | 0.00 | 0.00 | 0.00 | 55 | 1016.2 |
| 20260505213516 | 69 | 292 | 13.0 | 20.0 | 0.00 | 0.00 | 0.00 | 56 | 1016.2 |
| 20260505213017 | 69 | 235 | 12.2 | 20.0 | 0.00 | 0.00 | 0.00 | 56 | 1016.3 |
| 20260505212514 | 68 | 203 | 14.8 | 20.9 | 0.00 | 0.00 | 0.00 | 55 | 1016.3 |
| 20260505212004 | 68 | 224 | 12.2 | 20.9 | 0.00 | 0.00 | 0.00 | 56 | 1016.2 |
| 20260505211504 | 69 | 176 | 9.6 | 20.0 | 0.00 | 0.00 | 0.00 | 53 | 1016.4 |
| 20260505211004 | 70 | 255 | 10.4 | 22.6 | 0.00 | 0.00 | 0.00 | 54 | 1016.3 |
| 20260505210502 | 70 | 244 | 14.8 | 22.6 | 0.00 | 0.00 | 0.00 | 52 | 1016.1 |
| 20260505210003 | 69 | 207 | 11.3 | 20.9 | 0.00 | 0.00 | 0.00 | 54 | 1016.4 |
| 20260505205503 | 69 | 240 | 8.7 | 20.9 | 0.00 | 0.00 | 0.00 | 53 | 1016.5 |
| 20260505205003 | 69 | 255 | 11.3 | 20.9 | 0.00 | 0.00 | 0.00 | 53 | 1016.4 |
| 20260505204503 | 69 | 295 | 13.9 | 20.9 | 0.00 | 0.00 | 0.00 | 54 | 1016.4 |
| 20260505204003 | 69 | 248 | 13.0 | 17.4 | 0.00 | 0.00 | 0.00 | 54 | 1016.4 |